This is the latest recevied weather packets stored in our database for station/object DL9LAF-4. If no packets are shown the sender has not sent any weather packets the latest 10 day(s).
| Time | Temp. | Humidity | Pressure | Rain* | Wind** | Luminosity | Snow |
|---|---|---|---|---|---|---|---|
| 1777551353 | 18.89° C | 40% | 1009.9 hPa | 0 mm | - | - | - |
| 1777550753 | 18.89° C | 38% | 1009.9 hPa | 0 mm | - | - | - |
| 1777550153 | 18.33° C | 41% | 1009.9 hPa | 0 mm | - | - | - |
| 1777549553 | 17.78° C | 40% | 1010 hPa | 0 mm | - | - | - |
| 1777548953 | 17.78° C | 41% | 1010 hPa | 0 mm | - | - | - |
| 1777548353 | 17.78° C | 42% | 1010.2 hPa | 0 mm | - | - | - |
| 1777547753 | 17.22° C | 42% | 1010.4 hPa | 0 mm | - | - | - |
| 1777547153 | 17.22° C | 42% | 1010.5 hPa | 0 mm | - | - | - |
| 1777546553 | 16.67° C | 42% | 1010.7 hPa | 0 mm | - | - | - |
| 1777545953 | 16.67° C | 43% | 1010.7 hPa | 0 mm | - | - | - |
| 1777545353 | 16.11° C | 43% | 1010.7 hPa | 0 mm | - | - | - |
| 1777544753 | 15.56° C | 44% | 1010.7 hPa | 0 mm | - | - | - |
| 1777544153 | 15.56° C | 44% | 1010.7 hPa | 0 mm | - | - | - |
| 1777543553 | 15.56° C | 44% | 1010.9 hPa | 0 mm | - | - | - |
| 1777542953 | 15° C | 44% | 1010.9 hPa | 0 mm | - | - | - |
| 1777542353 | 15° C | 45% | 1011 hPa | 0 mm | - | - | - |
| 1777541753 | 14.44° C | 45% | 1011.2 hPa | 0 mm | - | - | - |
| 1777541153 | 13.89° C | 45% | 1010.9 hPa | 0 mm | - | - | - |
| 1777540553 | 13.89° C | 46% | 1010.9 hPa | 0 mm | - | - | - |
| 1777539953 | 13.33° C | 46% | 1011 hPa | 0 mm | - | - | - |
| 1777539353 | 13.33° C | 49% | 1011 hPa | 0 mm | - | - | - |
| 1777538753 | 12.78° C | 50% | 1011 hPa | 0 mm | - | - | - |
| 1777538153 | 12.78° C | 52% | 1011.2 hPa | 0 mm | - | - | - |
| 1777537553 | 12.22° C | 55% | 1011.2 hPa | 0 mm | - | - | - |
| 1777536953 | 12.22° C | 57% | 1011.2 hPa | 0 mm | - | - | - |
* Rain latest hour (hover to see other rain measurements)
** Current wind speed in m/s (hover to see current wind gust speed)